Regional Weather Roundup
Issued by NWS

Home | Current Version | Previous Version | Graphics & Text | Print | Product List | Glossary Off
Versions: 1 2 3 4 5 6 7 8 9 10 11 12 13 14 15 16 17 18 19 20 21 22 23 24 25 26 27 28 29 30 31 32 33 34 35 36 37 38 39 40 41 42 43 44 45

000
ASUS45 KTFX 282310
RWRMT
MONTANA REGIONAL WEATHER ROUNDUP
NATIONAL WEATHER SERVICE GREAT FALLS MT
500 PM MDT THU MAY 28 2015

NOTE: "FAIR" INDICATES FEW OR NO CLOUDS BELOW 12000 FEET WITH NO
SIGNIFICANT WEATHER AND/OR OBSTRUCTIONS TO VISIBILITY.

MTZ001>007-043-290000-
WEST OF THE DIVIDE

CITY           SKY/WX    TMP DP  RH WIND       PRES   REMARKS
KALISPELL      PTCLDY    72  43  35 NE21G29   30.11R
MISSOULA       LGT RAIN  61  54  77 E9        30.15R
BUTTE          LGT RAIN  53  45  74 W9        30.21R
MULLAN PASS    CLOUDY    53  45  74 CALM      30.21S
DEER LODGE       N/A     54  48  82 CALM      30.25R
EUREKA           N/A     70  43  37 NE17      30.11R
HAMILTON         N/A     68  41  37 SE3       30.15S
LIBBY            N/A     70  50  49 E7        30.09R
PLAINS           N/A     67  54  63 CALM      30.10S
RONAN            N/A     72  49  44 W1        30.15S
$$

MTZ008-052>055-290000-
SOUTHWEST MONTANA

CITY           SKY/WX    TMP DP  RH WIND       PRES   REMARKS
BOZEMAN        CLOUDY    52  49  89 E14       30.17R THUNDER
DILLON         LGT RAIN  50  45  83 CALM      30.19R
W YELLOWSTONE  LGT RAIN  48  43  81 N7        30.19R
$$

MTZ009-010-012-014-046-048-049-054-290000-
EAST SLOPES AND CENTRAL MONTANA

CITY           SKY/WX    TMP DP  RH WIND       PRES   REMARKS
CUT BANK       CLOUDY    46  44  93 N21       30.27R
GREAT FALLS    FOG       50  49  96 N18       30.21R VSB 1
MALMSTROM AFB  RAIN      52  51  96 N16       30.21R
HELENA         CLOUDY    59  47  64 N12       30.20R
CONRAD           N/A     49  49 100 NW16      30.25R
$$

MTZ011-013-016-021-045-047-050-051-290000-
NORTH CENTRAL MONTANA

CITY           SKY/WX    TMP DP  RH WIND       PRES   REMARKS
HAVRE          CLOUDY    57  47  69 N15       30.17R
LEWISTOWN      LGT RAIN  55  50  83 NW9       30.16R
N BAR RANCH    CLOUDY    54  48  82 NW22G30   30.16R
CHINOOK          N/A     59  48  67 N14G25    30.14R
FORT BENTON      N/A     57  52  82 N10       30.19R
$$

MTZ017>020-022>027-061-062-290000-
NORTHEAST MONTANA

CITY           SKY/WX    TMP DP  RH WIND       PRES   REMARKS
GLASGOW        CLOUDY    58  54  86 N7        30.02R
JORDAN           N/A     68  47  46 NE15      29.99R
SIDNEY         PTSUNNY   75  50  41 N13G20    29.90R
WOLF POINT     TSTM      65  51  60 N20G29    29.99R
MALTA            N/A     63  51  64 N23       30.03R
PLENTYWOOD       N/A     61  55  82 N22G28    29.98R
POPLAR           N/A     64  52  63 N20G30    29.96R
$$

MTZ028>42-056>058-290000-
SOUTHCENTRAL AND SOUTHEAST MONTANA

CITY           SKY/WX    TMP DP  RH WIND       PRES   REMARKS
BAKER          PTSUNNY   74  49  41 N17G23    29.92R
BILLINGS       CLOUDY    61  50  67 SW15      30.08R
LIVINGSTON     HVY RAIN  52  48  86 W13       30.16R FOG
MILES CITY     PTSUNNY   73  50  44 N18       29.93R
BIG TIMBER       N/A     57  46  67 W10       30.15R
EKALAKA          N/A     62  47  58 W10       29.95R
LAUREL           N/A     60  49  67 SW9       30.08R
ROUNDUP          N/A     60  50  69 NW7       29.98R
$$

REGIONAL REPORTS...DAKOTAS

CITY           SKY/WX    TMP DP  RH WIND       PRES   REMARKS
WILLISTON      PTSUNNY   74  52  46 N18       29.90R
MINOT          CLOUDY    70  56  61 N7        29.86S
DICKINSON      MOSUNNY   71  54  54 N15       29.87R
BEACH          MOCLDY    70  54  56 N14G20    29.92R
CROSBY         CLOUDY    59  59 100 NW23G29   29.96R FOG
WATFORD CITY   FAIR      70  55  60 N14       29.88R
BISMARCK       PTSUNNY   76  55  48 N14       29.82F
GRAND FORKS    LGT RAIN  66  61  84 W16G24    29.75F
FARGO          RAIN      66  59  78 S8        29.79F
BUFFALO SD       N/A     67  55  65 SE5       29.84F
RAPID CITY     CLOUDY    62  53  72 NW16      29.95R THUNDER
$$

REGIONAL REPORTS...WYOMING/IDAHO/WASHINGTON

CITY           SKY/WX    TMP DP  RH WIND       PRES   REMARKS
GILLETTE       CLOUDY    62  47  57 N15       30.02S
SHERIDAN       CLOUDY    59  49  69 N17G26    30.07R
BUFFALO WY     CLOUDY    60  45  57 N18G26    30.07S
CODY           CLOUDY    57  45  62 N14       30.09R
YELLOWSTONE LA   N/A     41  37  86 CALM      30.25R
IDAHO FALLS    CLOUDY    62  44  51 E5        30.12F
SALMON         CLOUDY    66  43  42 E20       30.11R
BOISE          SUNNY     77  43  29 W9        30.03F
SPOKANE        PTSUNNY   78  46  32 CALM      30.05F
$$

REGIONAL REPORTS...ALBERTA

CITY           SKY/WX    TMP DP  RH WIND       PRES   REMARKS
EDMONTON       SUNNY     57  27  30 N8        30.30S
CALGARY        CLOUDY    50  41  71 NE3       30.30S
LETHBRIDGE     CLOUDY    50  45  81 NE12G20   30.30R
MEDICINE HAT   PTSUNNY   54  41  62 NE12G20   30.25S
$$

REGIONAL REPORTS...SASKATCHEWAN

CITY           SKY/WX    TMP DP  RH WIND       PRES   REMARKS
SWIFT CURRENT  CLOUDY    52  41  66 N18G24    30.16R
REGINA         PTSUNNY   52  43  71 N24G36    30.09R
SASKATOON      MOSUNNY   57  30  35 N21G28    30.20R
$$


USA.gov is the U.S. government's official web portal to all federal, state and local government web resources and services.